Wind_Speed
31 18 22 30 30 29 27 26 31 25 21 27 25 24 22 24 22 19 28 34 31 33 34 34 32 28 30 31 27 26 22 22 24 25 29 28 24 22 21 13 18 21 22 19
19 23 28 26 27 29 30 29 28 24 25 24 25 26 22 22 23 21 26 28 31 33 28 27 30 29 31 30 25 23 24 24 26 24 29 29 22 19 18 18 17 19 21 16
25 24 27 27 26 28 29 28 27 27 24 26 24 25 26 24 21 29 25 26 29 32 34 32 33 31 32 34 30 28 22 22 29 24 27 19 19 16 16 13 12 13 10 11
22 27 26 28 28 28 27 30 29 26 24 16 25 16 18 19 21 22 26 28 27 29 34 33 34 33 26 18 21 27 39 36 31 24 27 24 23 19 14 15 12 11 15 14
12 15 22 24 25 28 27 26 27 29 23 21 19 14 17 20 23 25 23 27 28 30 30 30 36 35 28 22 25 30 32 30 24 24 27 23 18 15 12 13 12 8 10 10
24 28 17 17 19 22 26 26 22 25 18 16 21 18 18 17 25 21 21 30 28 29 27 29 36 36 29 25 27 24 24 23 23 24 24 22 19 17 17 13 8 9 9 7
16 25 21 19 20 19 17 22 13 13 15 14 22 20 14 23 25 24 23 29 33 28 31 28 29 38 32 27 30 28 30 27 23 24 24 24 17 15 19 15 9 10 11 7
4 5 17 19 26 21 22 22 16 12 15 19 24 24 18 21 10 26 31 33 32 32 28 32 34 34 31 31 34 29 25 22 20 22 22 17 22 13 14 15 13 12 9 9
5 9 15 17 20 26 26 21 23 18 19 17 20 21 18 17 5 7 18 31 32 30 30 28 29 32 30 37 31 28 22 19 18 19 19 16 15 17 14 16 12 12 6 4
5 6 7 6 8 25 24 21 19 14 17 19 20 24 16 22 14 10 15 15 27 29 27 28 26 38 37 33 30 26 23 23 21 20 23 24 24 22 17 19 15 12 11 7
13 4 3 9 6 18 19 14 20 18 9 9 15 17 22 23 20 17 17 21 21 26 31 36 37 37 35 30 26 25 23 21 19 20 20 19 18 18 16 15 11 8 6 3
4 4 5 10 17 16 24 17 24 13 19 12 10 7 21 19 22 24 19 21 23 28 31 33 34 34 33 30 28 29 29 28 27 23 22 20 18 16 14 11 8 4 2 2
6 3 4 2 5 10 11 25 28 18 15 18 12 4 13 22 22 22 27 26 27 29 31 33 35 37 38 36 35 33 28 24 20 17 18 17 15 12 9 6 3 2 1 4
7 4 8 7 3 13 19 12 25 20 12 14 8 3 9 10 20 19 25 29 29 28 30 35 37 39 38 35 31 27 24 21 19 17 16 16 13 11 8 7 5 6 7 8
0 5 14 15 15 22 11 12 18 23 17 2 7 15 11 11 16 20 30 35 35 32 32 35 38 38 35 32 29 26 23 21 19 18 17 15 12 10 9 7 7 6 7 6
1 4 6 8 16 13 18 21 21 19 14 5 5 17 16 16 24 25 28 33 34 33 33 36 36 35 31 28 25 23 22 20 19 18 17 14 12 11 10 8 5 5 4 7
3 4 4 2 15 16 7 18 19 21 20 3 2 11 20 15 16 23 32 33 36 35 34 35 33 31 28 25 24 23 22 20 20 18 16 13 12 9 8 6 8 9 11 9
4 3 3 2 9 9 12 9 20 16 17 17 20 16 18 20 27 28 31 35 35 36 34 32 32 28 25 24 23 22 20 20 19 18 16 14 12 11 10 9 10 10 10 13
11 2 3 1 2 3 6 14 15 18 13 17 20 20 25 38 41 27 31 34 34 35 33 31 28 26 25 24 22 22 21 20 18 17 16 14 12 11 11 11 11 12 13 13
11 7 4 5 4 4 17 25 34 15 7 18 20 20 23 32 18 11 30 35 34 32 29 28 26 26 25 23 21 22 21 19 18 16 15 14 11 11 12 12 12 13 12 12
5 3 3 4 2 4 11 21 29 2 7 15 33 26 23 15 16 33 35 33 31 29 28 27 26 26 23 21 21 22 20 19 15 13 13 13 12 12 12 12 12 14 13 12
4 6 4 4 3 3 18 7 3 13 31 24 25 37 38 34 34 33 31 30 29 28 27 26 29 26 21 18 19 20 19 14 12 13 14 12 11 12 11 11 10 10 11 10
4 7 4 5 2 4 20 28 32 39 33 30 34 38 43 36 35 30 30 29 28 28 28 25 26 24 21 17 15 16 15 12 15 15 14 14 12 12 12 11 12 11 11 12
8 18 5 6 10 17 25 32 33 40 41 40 42 45 41 33 32 30 30 30 29 27 26 23 23 23 22 17 16 15 13 12 14 13 13 13 13 13 15 14 14 14 14 15
5 12 10 5 10 19 27 34 40 40 46 42 43 40 38 38 34 30 27 27 27 26 23 22 23 22 20 17 16 13 12 12 13 13 13 12 13 13 13 15 17 15 16 16
10 5 4 3 8 21 22 34 40 43 42 43 50 41 35 36 39 33 29 27 25 24 22 23 22 20 19 17 17 13 13 11 11 14 15 17 10 8 10 14 15 16 17 17
Wind_Direction
226 229 230 221 224 231 234 233 223 237 221 221 226 225 227 232 231 217 213 215 214 232 217 215 220 211 202 212 210 208 204 197 207 190 189 193 185 199 195 211 220 227 233 239
238 210 230 238 232 233 239 244 245 231 219 235 220 230 217 221 236 222 208 211 219 223 222 215 211 210 201 193 192 193 198 203 210 207 197 203 193 206 206 214 220 238 244 246
245 220 219 231 238 238 230 234 237 243 227 222 231 222 210 214 231 225 218 227 214 214 218 216 210 206 198 189 187 192 200 209 217 208 191 197 189 204 205 208 215 211 200 228
254 244 230 215 224 236 232 219 234 237 244 237 209 223 201 200 225 235 221 208 217 207 210 212 198 195 179 163 181 214 199 210 213 206 180 194 191 190 202 199 189 218 236 224
244 251 248 255 235 220 238 231 215 239 240 249 203 214 226 193 229 219 212 200 211 215 200 204 180 186 193 175 170 181 192 199 207 199 192 192 184 185 180 184 194 231 242 228
262 261 240 286 252 245 218 236 238 218 234 242 239 199 215 231 211 215 211 195 202 199 205 202 171 178 189 181 173 180 187 196 201 193 180 184 179 187 172 175 190 221 225 234
280 264 250 222 238 260 250 206 207 217 211 221 234 231 215 207 235 207 207 200 191 201 194 197 179 170 176 182 169 170 186 179 189 176 172 171 181 169 175 182 199 183 211 231
232 237 218 220 238 207 234 219 211 186 201 202 223 219 213 231 302 200 195 189 184 196 191 189 199 171 171 187 171 178 171 173 178 178 172 170 181 159 174 159 174 182 205 217
290 217 334 261 253 233 199 232 203 209 203 209 213 223 225 242 84 51 179 172 175 183 193 192 192 178 158 139 157 166 168 153 167 176 174 161 157 171 185 169 171 175 199 235
317 293 187 301 295 256 237 209 194 224 221 201 204 206 210 220 167 143 65 125 166 176 186 184 155 126 127 132 139 150 157 159 168 169 163 163 167 165 163 161 166 169 174 198
331 305 112 3 252 233 222 232 200 213 196 229 196 202 207 204 162 117 86 77 70 90 106 113 113 116 129 131 134 136 140 144 148 155 154 148 147 150 155 154 153 155 165 182
352 292 259 225 237 264 235 182 249 204 201 259 262 150 353 204 125 111 105 98 97 99 105 109 114 116 116 117 120 125 126 130 136 136 142 142 149 141 137 135 134 136 163 256
355 290 292 196 327 282 264 165 220 215 214 221 230 98 21 79 90 103 109 105 101 105 109 112 113 112 111 111 114 117 122 123 122 135 141 134 128 124 118 113 96 80 313 307
211 252 257 293 331 276 197 234 209 226 217 242 248 145 98 72 113 112 105 102 104 111 112 110 108 105 106 109 114 117 113 113 117 118 119 114 107 98 89 74 45 22 4 353
7 268 285 266 266 266 172 186 230 218 223 204 198 158 130 113 121 115 112 111 110 109 107 105 104 104 107 114 114 114 116 117 115 109 106 98 97 94 77 58 36 27 6 349
282 273 291 256 222 214 169 204 222 228 89 294 151 119 119 112 117 106 104 108 109 109 108 105 104 106 108 109 111 115 111 108 102 93 86 86 74 66 64 54 30 11 325 311
248 293 282 168 174 188 170 197 210 209 147 124 79 120 120 117 109 108 107 107 108 109 106 107 107 107 109 112 115 112 110 107 100 93 85 79 75 66 55 33 12 13 -0 355
256 233 270 51 135 159 205 221 99 70 79 102 111 126 117 108 97 99 107 109 106 104 103 103 103 107 111 112 110 108 104 96 90 85 79 73 66 63 51 29 19 28 21 7
194 291 311 109 42 98 200 103 100 111 92 108 106 105 103 102 92 81 100 102 104 105 105 105 109 109 110 107 107 103 96 91 86 79 75 68 63 55 52 50 42 39 33 9
190 225 306 170 177 118 102 112 118 115 74 123 110 116 117 112 95 103 102 101 102 103 107 108 107 105 104 103 104 98 90 85 77 75 73 68 54 63 54 45 30 23 19 17
342 357 342 5 74 86 78 144 158 136 155 143 129 123 105 94 99 115 109 105 107 108 108 107 104 99 98 102 101 91 87 81 80 80 76 87 72 40 47 38 26 27 27 25
328 321 30 21 52 28 341 315 54 121 130 129 111 113 108 107 106 107 109 111 110 108 106 104 98 92 92 92 94 89 81 84 86 84 78 72 64 55 45 32 31 26 40 34
15 343 347 12 9 304 48 94 121 130 116 118 116 119 119 114 113 119 118 114 110 106 101 96 93 90 88 90 91 92 95 86 85 80 72 67 60 52 42 41 40 46 48 50
336 12 24 11 333 74 85 98 100 124 117 123 123 123 121 115 119 116 114 109 103 99 98 97 94 89 87 80 78 81 80 89 89 80 81 69 49 42 40 41 44 48 50 48
337 308 330 359 2 56 61 100 110 111 120 117 120 118 118 117 110 108 110 111 106 102 102 99 94 89 85 79 73 71 79 80 84 82 78 85 64 21 28 40 38 39 43 40
334 331 359 331 345 81 72 100 111 113 116 119 121 121 120 115 114 114 103 101 104 101 99 96 93 89 84 82 76 54 57 68 78 95 87 72 64 39 33 31 39 41 44 43
Height
1400 1405 1397 1385 1385 1384 1380 1379 1382 1377 1372 1380 1378 1387 1388 1392 1392 1397 1399 1407 1412 1415 1419 1423 1427 1430 1430 1428 1432 1440 1450 1456 1458 1461 1467 1476 1482 1486 1489 1490 1493 1497 1500 1502
1389 1391 1390 1388 1388 1388 1385 1383 1375 1368 1368 1372 1373 1375 1379 1384 1386 1390 1394 1399 1405 1412 1413 1417 1422 1426 1425 1431 1435 1444 1448 1452 1456 1464 1469 1475 1481 1486 1489 1490 1491 1495 1498 1500
1382 1376 1381 1387 1386 1382 1379 1380 1376 1372 1359 1360 1366 1370 1371 1376 1381 1385 1388 1393 1397 1402 1408 1412 1417 1421 1422 1427 1437 1441 1451 1457 1459 1464 1470 1476 1479 1484 1488 1488 1489 1492 1495 1497
1382 1369 1366 1371 1378 1377 1375 1369 1373 1369 1366 1368 1354 1379 1366 1372 1378 1378 1381 1385 1391 1396 1403 1407 1411 1416 1421 1424 1431 1436 1443 1458 1458 1460 1468 1472 1475 1480 1485 1486 1487 1490 1492 1495
1386 1373 1369 1369 1361 1366 1367 1360 1368 1370 1366 1362 1354 1375 1363 1365 1374 1368 1369 1378 1385 1392 1397 1402 1405 1411 1418 1429 1434 1439 1448 1452 1456 1458 1466 1472 1476 1480 1482 1483 1485 1487 1489 1492
1372 1368 1362 1365 1358 1356 1360 1364 1362 1365 1366 1377 1360 1364 1369 1360 1355 1358 1364 1371 1380 1387 1393 1399 1403 1410 1415 1427 1435 1440 1444 1448 1453 1459 1466 1472 1476 1479 1479 1478 1482 1484 1487 1489
1377 1363 1360 1368 1365 1361 1358 1360 1371 1384 1376 1380 1360 1357 1352 1347 1345 1347 1354 1363 1373 1383 1390 1396 1402 1408 1414 1422 1430 1439 1444 1449 1456 1462 1466 1471 1474 1475 1475 1476 1480 1483 1485 1487
1384 1356 1351 1356 1354 1356 1359 1352 1357 1389 1385 1372 1352 1351 1341 1334 1336 1333 1343 1355 1368 1379 1386 1393 1401 1406 1413 1421 1422 1433 1441 1448 1455 1461 1466 1468 1469 1471 1473 1478 1481 1482 1485 1486
1369 1364 1359 1352 1347 1350 1347 1355 1343 1357 1353 1356 1350 1343 1339 1332 1338 1335 1337 1348 1363 1375 1384 1391 1398 1405 1411 1415 1424 1431 1438 1446 1453 1458 1461 1465 1468 1472 1473 1478 1480 1482 1484 1485
1380 1371 1358 1360 1363 1340 1340 1338 1354 1353 1366 1362 1345 1350 1350 1338 1342 1346 1352 1350 1361 1372 1382 1390 1396 1399 1408 1419 1428 1435 1439 1445 1454 1460 1462 1464 1467 1470 1473 1475 1476 1480 1482 1483
1381 1376 1372 1366 1358 1353 1338 1343 1340 1346 1354 1363 1349 1340 1331 1330 1334 1349 1367 1372 1374 1376 1383 1388 1398 1405 1412 1423 1431 1437 1443 1450 1458 1463 1465 1466 1468 1471 1472 1475 1477 1479 1481 1483
1389 1386 1372 1357 1344 1339 1328 1349 1349 1345 1357 1350 1339 1338 1337 1315 1330 1354 1375 1381 1385 1389 1393 1400 1406 1412 1419 1427 1435 1439 1446 1453 1459 1463 1465 1467 1470 1472 1474 1475 1478 1479 1482 1483
1391 1382 1364 1345 1347 1340 1336 1337 1344 1336 1346 1350 1350 1360 1361 1345 1356 1367 1373 1384 1391 1397 1402 1407 1413 1418 1424 1432 1438 1444 1453 1459 1462 1466 1469 1471 1473 1474 1476 1478 1478 1479 1480 1481
1392 1384 1378 1357 1360 1347 1345 1339 1331 1340 1354 1352 1359 1368 1374 1370 1370 1376 1381 1387 1395 1404 1409 1413 1417 1422 1428 1437 1446 1454 1459 1463 1467 1470 1471 1473 1474 1476 1477 1478 1478 1479 1480 1480
1390 1380 1367 1356 1357 1348 1340 1353 1343 1341 1345 1363 1352 1362 1374 1378 1381 1380 1386 1393 1401 1411 1416 1419 1421 1428 1438 1449 1454 1459 1465 1468 1471 1472 1473 1475 1476 1477 1478 1478 1479 1479 1480 1480
1390 1377 1372 1357 1343 1338 1343 1344 1341 1337 1361 1368 1354 1369 1378 1384 1388 1390 1394 1398 1407 1416 1422 1426 1430 1438 1448 1453 1459 1464 1468 1471 1473 1474 1476 1477 1478 1479 1478 1479 1479 1478 1478 1477
1385 1378 1364 1328 1323 1326 1338 1332 1345 1344 1352 1353 1370 1375 1383 1390 1396 1397 1400 1409 1414 1423 1429 1436 1441 1447 1455 1461 1465 1468 1471 1473 1474 1476 1478 1479 1479 1479 1478 1478 1478 1477 1476 1476
1380 1376 1362 1331 1324 1348 1321 1315 1329 1348 1352 1366 1377 1375 1386 1392 1401 1407 1412 1416 1425 1431 1438 1444 1447 1455 1462 1466 1469 1471 1473 1474 1475 1477 1479 1480 1480 1480 1480 1478 1477 1477 1476 1474
1376 1374 1360 1347 1350 1331 1322 1349 1342 1357 1375 1379 1382 1388 1393 1399 1404 1421 1424 1429 1435 1439 1445 1451 1458 1462 1466 1469 1471 1472 1474 1475 1477 1478 1480 1482 1482 1479 1479 1478 1477 1476 1476 1474
1368 1371 1367 1344 1347 1341 1348 1355 1357 1366 1391 1392 1389 1398 1400 1401 1412 1433 1434 1437 1442 1448 1454 1458 1463 1465 1468 1471 1473 1474 1475 1478 1479 1481 1482 1484 1482 1480 1479 1479 1478 1477 1476 1474
1368 1369 1367 1363 1360 1348 1348 1348 1347 1361 1399 1398 1397 1402 1411 1416 1426 1433 1439 1446 1452 1457 1460 1463 1467 1467 1469 1473 1474 1475 1479 1480 1482 1483 1484 1484 1484 1481 1480 1480 1479 1478 1476 1475
1380 1369 1361 1369 1364 1363 1356 1347 1352 1377 1393 1401 1406 1408 1418 1426 1434 1440 1447 1452 1458 1462 1465 1468 1467 1469 1474 1476 1475 1480 1481 1482 1483 1485 1484 1483 1483 1482 1482 1481 1480 1479 1478 1477
1385 1383 1379 1377 1373 1372 1363 1362 1375 1382 1390 1405 1410 1418 1421 1432 1439 1448 1454 1457 1462 1465 1467 1469 1469 1472 1475 1479 1481 1482 1483 1484 1485 1486 1485 1485 1485 1485 1484 1483 1482 1481 1480 1478
1399 1392 1386 1381 1383 1379 1375 1380 1384 1388 1397 1409 1417 1422 1429 1438 1447 1452 1457 1460 1463 1466 1469 1473 1475 1479 1483 1485 1485 1485 1485 1486 1487 1487 1487 1488 1488 1488 1487 1486 1485 1483 1482 1480
1419 1408 1399 1393 1393 1390 1389 1393 1396 1403 1409 1418 1425 1432 1437 1441 1449 1455 1461 1466 1469 1472 1476 1480 1481 1484 1487 1489 1488 1487 1487 1487 1488 1489 1490 1491 1492 1491 1491 1489 1487 1485 1484 1482
1425 1418 1411 1409 1405 1401 1407 1408 1411 1415 1422 1427 1427 1442 1452 1452 1456 1463 1465 1469 1475 1478 1482 1484 1487 1489 1491 1492 1492 1491 1490 1490 1490 1491 1493 1495 1496 1496 1494 1491 1489 1489 1487 1485